Zurück zum Katalog

STARLINK-35474

AktivKommunikationVLEO
NORAD 66437·PAYLOAD·🇺🇸 United States

Gestartet Nov 11, 2025 von Cape Canaveral Space Force Station

Loading…

Nächste Überflüge (nächste 24 Stunden)

TLE

AktuellSource: CelesTrak SupGP

Epoche: Sep 15, 2026, 02:30 UTC

1 66437C 25259R   26258.10465278  .00010387  00000+0  37613-3 0  2584
2 66437  43.0021 284.7858 0001714 267.6656 252.4683 15.27578611    15

Verfolge STARLINK-35474 in Echtzeit mit AllMySat

Download on the App Store